| time (UTC) | temp F | wind direction | speed knots | gust knots | rain 1hr in | rain 24hr in | rain mn in | humidity % | barometer mb |
| 20260508220408 | 70 | 114 | 3.5 | 4.3 | 0.00 | 0.00 | 0.00 | 37 | 1007.1 |
| 20260508215904 | 71 | 141 | 6.1 | 7.0 | 0.00 | 0.00 | 0.00 | 36 | 1007.0 |
| 20260508215401 | 71 | 151 | 3.5 | 4.3 | 0.00 | 0.00 | 0.00 | 36 | 1007.2 |
| 20260508214858 | 71 | 118 | 5.2 | 6.1 | 0.00 | 0.00 | 0.00 | 35 | 1007.3 |
| 20260508214355 | 71 | 137 | 0.0 | 0.0 | 0.00 | 0.00 | 0.00 | 39 | 1007.2 |
| 20260508213851 | 71 | 142 | 2.6 | 2.6 | 0.00 | 0.00 | 0.00 | 38 | 1007.1 |
| 20260508213349 | 72 | 137 | 5.2 | 6.1 | 0.00 | 0.00 | 0.00 | 36 | 1007.1 |
| 20260508212844 | 71 | 137 | 2.6 | 2.6 | 0.00 | 0.00 | 0.00 | 37 | 1007.3 |
| 20260508212341 | 72 | 138 | 4.3 | 6.1 | 0.00 | 0.00 | 0.00 | 39 | 1007.1 |
| 20260508211837 | 71 | 102 | 4.3 | 5.2 | 0.00 | 0.00 | 0.00 | 36 | 1007.2 |
| 20260508211332 | 71 | 125 | 6.1 | 7.0 | 0.00 | 0.00 | 0.00 | 37 | 1007.3 |
| 20260508210830 | 71 | 147 | 7.8 | 8.7 | 0.00 | 0.00 | 0.00 | 37 | 1007.4 |
| 20260508210327 | 71 | 136 | 4.3 | 5.2 | 0.00 | 0.00 | 0.00 | 38 | 1007.1 |
| 20260508205824 | 71 | 147 | 7.0 | 7.8 | 0.00 | 0.00 | 0.00 | 36 | 1007.4 |
| 20260508205320 | 71 | 121 | 4.3 | 6.1 | 0.00 | 0.00 | 0.00 | 35 | 1007.2 |
| 20260508204816 | 71 | 134 | 2.6 | 2.6 | 0.00 | 0.00 | 0.00 | 37 | 1007.7 |
| 20260508204314 | 71 | 125 | 8.7 | 12.2 | 0.00 | 0.00 | 0.00 | 35 | 1007.4 |
| 20260508203810 | 70 | 95 | 7.0 | 8.7 | 0.00 | 0.00 | 0.00 | 37 | 1007.9 |
| 20260508203306 | 71 | 128 | 3.5 | 4.3 | 0.00 | 0.00 | 0.00 | 42 | 1007.8 |
| 20260508202801 | 71 | 155 | 7.8 | 8.7 | 0.00 | 0.00 | 0.00 | 41 | 1007.6 |
| 20260508202259 | 70 | 121 | 5.2 | 7.0 | 0.00 | 0.00 | 0.00 | 40 | 1007.5 |
| 20260508201756 | 71 | 125 | 2.6 | 4.3 | 0.00 | 0.00 | 0.00 | 39 | 1007.7 |
| 20260508201253 | 71 | 139 | 3.5 | 5.2 | 0.00 | 0.00 | 0.00 | 38 | 1008.0 |
| 20260508200749 | 70 | 170 | 2.6 | 2.6 | 0.00 | 0.00 | 0.00 | 39 | 1007.7 |
| 20260508200246 | 71 | 123 | 6.1 | 8.7 | 0.00 | 0.00 | 0.00 | 42 | 1007.7 |
| 20260508195742 | 71 | 128 | 4.3 | 5.2 | 0.00 | 0.00 | 0.00 | 43 | 1007.6 |
| 20260508195239 | 70 | 134 | 2.6 | 2.6 | 0.00 | 0.00 | 0.00 | 42 | 1007.8 |
| 20260508194735 | 71 | 126 | 7.0 | 7.8 | 0.00 | 0.00 | 0.00 | 39 | 1008.3 |
| 20260508194232 | 70 | 133 | 4.3 | 5.2 | 0.00 | 0.00 | 0.00 | 40 | 1008.2 |
| 20260508193730 | 70 | 125 | 7.0 | 11.3 | 0.00 | 0.00 | 0.00 | 39 | 1008.3 |
| 20260508193226 | 70 | 126 | 5.2 | 6.1 | 0.00 | 0.00 | 0.00 | 43 | 1008.6 |
| 20260508192722 | 70 | 114 | 1.7 | 1.7 | 0.00 | 0.00 | 0.00 | 40 | 1008.9 |
| 20260508192220 | 70 | 135 | 4.3 | 6.1 | 0.00 | 0.00 | 0.00 | 43 | 1008.7 |
| 20260508191717 | 70 | 128 | 2.6 | 4.3 | 0.00 | 0.00 | 0.00 | 40 | 1008.7 |
| 20260508191214 | 70 | 241 | 3.5 | 5.2 | 0.00 | 0.00 | 0.00 | 44 | 1009.0 |
| 20260508190711 | 70 | 112 | 0.9 | 0.9 | 0.00 | 0.00 | 0.00 | 43 | 1009.1 |
| 20260508190207 | 70 | 126 | 3.5 | 4.3 | 0.00 | 0.00 | 0.00 | 40 | 1009.1 |
| 20260508185704 | 70 | 142 | 4.3 | 6.1 | 0.00 | 0.00 | 0.00 | 42 | 1009.3 |
| 20260508185201 | 70 | 108 | 3.5 | 4.3 | 0.00 | 0.00 | 0.00 | 41 | 1009.4 |
| 20260508184658 | 70 | 139 | 1.7 | 2.6 | 0.00 | 0.00 | 0.00 | 46 | 1009.4 |
| 20260508184155 | 70 | 116 | 0.9 | 0.9 | 0.00 | 0.00 | 0.00 | 41 | 1009.5 |
| 20260508183652 | 70 | 104 | 4.3 | 5.2 | 0.00 | 0.00 | 0.00 | 41 | 1009.8 |
| 20260508183148 | 69 | 121 | 4.3 | 6.1 | 0.00 | 0.00 | 0.00 | 40 | 1009.5 |
| 20260508182644 | 69 | 108 | 7.0 | 8.7 | 0.00 | 0.00 | 0.00 | 40 | 1009.9 |
| 20260508182141 | 70 | 71 | 2.6 | 4.3 | 0.00 | 0.00 | 0.00 | 41 | 1009.8 |
| 20260508181636 | 69 | 158 | 0.9 | 1.7 | 0.00 | 0.00 | 0.00 | 41 | 1010.0 |
| 20260508181134 | 69 | 110 | 4.3 | 6.1 | 0.00 | 0.00 | 0.00 | 40 | 1010.1 |
| 20260508180631 | 68 | 152 | 2.6 | 2.6 | 0.00 | 0.00 | 0.00 | 44 | 1010.2 |
| 20260508180127 | 69 | 135 | 5.2 | 7.0 | 0.00 | 0.00 | 0.00 | 45 | 1010.1 |
| 20260508175624 | 69 | 128 | 0.9 | 1.7 | 0.00 | 0.00 | 0.00 | 47 | 1010.5 |
| 20260508175121 | 69 | 128 | 1.7 | 2.6 | 0.00 | 0.00 | 0.00 | 40 | 1010.3 |
| 20260508174618 | 69 | 130 | 7.0 | 7.8 | 0.00 | 0.00 | 0.00 | 45 | 1010.6 |
| 20260508174115 | 70 | 207 | 3.5 | 4.3 | 0.00 | 0.00 | 0.00 | 49 | 1010.5 |
| 20260508173612 | 69 | 141 | 3.5 | 4.3 | 0.00 | 0.00 | 0.00 | 43 | 1010.7 |
| 20260508173108 | 70 | 145 | 1.7 | 1.7 | 0.00 | 0.00 | 0.00 | 47 | 1010.6 |
| 20260508172606 | 69 | 277 | 5.2 | 7.0 | 0.00 | 0.00 | 0.00 | 48 | 1010.8 |
| 20260508172102 | 68 | 244 | 2.6 | 2.6 | 0.00 | 0.00 | 0.00 | 42 | 1010.8 |
| 20260508171558 | 68 | 120 | 5.2 | 7.0 | 0.00 | 0.00 | 0.00 | 42 | 1011.2 |
| 20260508171055 | 68 | 114 | 2.6 | 2.6 | 0.00 | 0.00 | 0.00 | 44 | 1010.9 |
| 20260508170552 | 69 | 122 | 6.1 | 8.7 | 0.00 | 0.00 | 0.00 | 46 | 1011.2 |
| 20260508170049 | 68 | 159 | 1.7 | 1.7 | 0.00 | 0.00 | 0.00 | 45 | 1011.1 |
| 20260508165547 | 68 | 125 | 1.7 | 1.7 | 0.00 | 0.00 | 0.00 | 40 | 1011.4 |
| 20260508165043 | 67 | 189 | 5.2 | 7.0 | 0.00 | 0.00 | 0.00 | 48 | 1011.4 |
| 20260508164540 | 67 | 117 | 2.6 | 5.2 | 0.00 | 0.00 | 0.00 | 42 | 1011.6 |
| 20260508164037 | 67 | 91 | 2.6 | 4.3 | 0.00 | 0.00 | 0.00 | 41 | 1011.6 |
| 20260508163534 | 66 | 164 | 2.6 | 4.3 | 0.00 | 0.00 | 0.00 | 47 | 1011.7 |
| 20260508163031 | 67 | 114 | 7.8 | 9.6 | 0.00 | 0.00 | 0.00 | 42 | 1011.8 |
| 20260508162528 | 66 | 224 | 3.5 | 4.3 | 0.00 | 0.00 | 0.00 | 42 | 1011.7 |
| 20260508162025 | 66 | 177 | 3.5 | 5.2 | 0.00 | 0.00 | 0.00 | 48 | 1012.0 |
| 20260508161522 | 65 | 134 | 0.0 | 0.0 | 0.00 | 0.00 | 0.00 | 48 | 1012.0 |
| 20260508161019 | 65 | 145 | 3.5 | 4.3 | 0.00 | 0.00 | 0.00 | 47 | 1012.2 |
| 20260508160517 | 65 | 127 | 8.7 | 11.3 | 0.00 | 0.00 | 0.00 | 45 | 1012.2 |
| 20260508160014 | 66 | 118 | 0.0 | 0.0 | 0.00 | 0.00 | 0.00 | 47 | 1012.4 |
| 20260508155511 | 65 | 128 | 0.9 | 0.9 | 0.00 | 0.00 | 0.00 | 47 | 1012.4 |
| 20260508155008 | 65 | 126 | 3.5 | 5.2 | 0.00 | 0.00 | 0.00 | 46 | 1012.4 |
| 20260508154505 | 65 | 110 | 5.2 | 6.1 | 0.00 | 0.00 | 0.00 | 50 | 1012.6 |
| 20260508154002 | 65 | 124 | 0.9 | 2.6 | 0.00 | 0.00 | 0.00 | 46 | 1012.3 |
| 20260508153458 | 65 | 159 | 1.7 | 1.7 | 0.00 | 0.00 | 0.00 | 48 | 1012.6 |
| 20260508152955 | 64 | 357 | 2.6 | 6.1 | 0.00 | 0.00 | 0.00 | 47 | 1012.4 |
| 20260508152452 | 64 | 122 | 3.5 | 4.3 | 0.00 | 0.00 | 0.00 | 46 | 1012.4 |
| 20260508151948 | 63 | 304 | 3.5 | 5.2 | 0.00 | 0.00 | 0.00 | 45 | 1012.3 |
| 20260508151444 | 63 | 338 | 4.3 | 6.1 | 0.00 | 0.00 | 0.00 | 46 | 1012.5 |
| 20260508150941 | 63 | 123 | 2.6 | 2.6 | 0.00 | 0.00 | 0.00 | 45 | 1012.3 |
| 20260508150438 | 63 | 113 | 4.3 | 5.2 | 0.00 | 0.00 | 0.00 | 45 | 1012.5 |
| 20260508145933 | 64 | 130 | 4.3 | 5.2 | 0.00 | 0.00 | 0.00 | 48 | 1012.7 |
| 20260508145431 | 62 | 106 | 1.7 | 1.7 | 0.00 | 0.00 | 0.00 | 51 | 1012.6 |
| 20260508144927 | 62 | 146 | 0.0 | 0.9 | 0.00 | 0.00 | 0.00 | 51 | 1012.5 |
| 20260508144425 | 61 | 124 | 2.6 | 2.6 | 0.00 | 0.00 | 0.00 | 49 | 1012.7 |
| 20260508143922 | 61 | 141 | 4.3 | 5.2 | 0.00 | 0.00 | 0.00 | 50 | 1012.3 |
| 20260508143420 | 62 | 136 | 0.0 | 0.0 | 0.00 | 0.00 | 0.00 | 54 | 1012.8 |
| 20260508142916 | 61 | 124 | 1.7 | 1.7 | 0.00 | 0.00 | 0.00 | 53 | 1012.4 |
| 20260508142413 | 60 | 130 | 4.3 | 5.2 | 0.00 | 0.00 | 0.00 | 57 | 1012.4 |
| 20260508141909 | 59 | 148 | 0.9 | 1.7 | 0.00 | 0.00 | 0.00 | 59 | 1012.5 |
| 20260508141406 | 59 | 109 | 0.0 | 0.9 | 0.00 | 0.00 | 0.00 | 58 | 1012.6 |
| 20260508140904 | 58 | 114 | 4.3 | 5.2 | 0.00 | 0.00 | 0.00 | 58 | 1012.7 |
| 20260508140401 | 58 | 122 | 3.5 | 6.1 | 0.00 | 0.00 | 0.00 | 59 | 1012.6 |
| 20260508135856 | 57 | 71 | 5.2 | 6.1 | 0.00 | 0.00 | 0.00 | 59 | 1012.6 |
| 20260508135353 | 56 | 121 | 4.3 | 5.2 | 0.00 | 0.00 | 0.00 | 61 | 1012.6 |
| 20260508134849 | 56 | 120 | 6.1 | 7.0 | 0.00 | 0.00 | 0.00 | 60 | 1012.7 |
| 20260508134346 | 56 | 103 | 4.3 | 7.0 | 0.00 | 0.00 | 0.00 | 64 | 1012.6 |
| 20260508133843 | 55 | 135 | 0.9 | 0.9 | 0.00 | 0.00 | 0.00 | 65 | 1012.6 |
| 20260508133341 | 55 | 133 | 2.6 | 2.6 | 0.00 | 0.00 | 0.00 | 69 | 1012.7 |
| 20260508132837 | 54 | 109 | 1.7 | 1.7 | 0.00 | 0.00 | 0.00 | 75 | 1012.7 |
| 20260508132335 | 53 | 131 | 0.9 | 0.9 | 0.00 | 0.00 | 0.00 | 76 | 1012.9 |
| 20260508131832 | 53 | 120 | 0.0 | 0.0 | 0.00 | 0.00 | 0.00 | 83 | 1012.7 |
| 20260508131327 | 52 | 109 | 1.7 | 1.7 | 0.00 | 0.00 | 0.00 | 81 | 1012.9 |
| 20260508130824 | 51 | 117 | 0.0 | 0.0 | 0.00 | 0.00 | 0.00 | 86 | 1012.9 |
| 20260508130321 | 49 | 119 | 0.9 | 1.7 | 0.00 | 0.00 | 0.00 | 85 | 1012.9 |
| 20260508125817 | 47 | 121 | 1.7 | 1.7 | 0.00 | 0.00 | 0.00 | 88 | 1012.8 |
| 20260508125314 | 46 | 126 | 0.0 | 0.0 | 0.00 | 0.00 | 0.00 | 98 | 1012.7 |
| 20260508124812 | 44 | 125 | 0.0 | 0.9 | 0.00 | 0.00 | 0.00 | 99 | 1012.7 |
| 20260508124308 | 42 | 125 | 0.0 | 0.0 | 0.00 | 0.00 | 0.00 | 99 | 1012.8 |
| 20260508123807 | 41 | 127 | 0.0 | 0.0 | 0.00 | 0.00 | 0.00 | 99 | 1012.8 |
| 20260508123305 | 41 | 123 | 0.0 | 0.0 | 0.00 | 0.00 | 0.00 | 99 | 1013.0 |
| 20260508122801 | 40 | 126 | 0.0 | 0.0 | 0.00 | 0.00 | 0.00 | 99 | 1012.9 |
| 20260508122258 | 39 | 126 | 0.0 | 0.0 | 0.00 | 0.00 | 0.00 | 99 | 1012.7 |
| 20260508121755 | 39 | 126 | 0.0 | 0.0 | 0.00 | 0.00 | 0.00 | 99 | 1012.8 |
| 20260508121253 | 38 | 126 | 0.0 | 0.0 | 0.00 | 0.00 | 0.00 | 99 | 1012.9 |
| 20260508120750 | 37 | 126 | 0.0 | 0.0 | 0.00 | 0.00 | 0.00 | 99 | 1012.8 |
| 20260508120248 | 36 | 129 | 0.0 | 0.0 | 0.00 | 0.00 | 0.00 | 99 | 1012.7 |
| 20260508115746 | 36 | 129 | 0.0 | 0.0 | 0.00 | 0.00 | 0.00 | 99 | 1012.6 |
| 20260508115243 | 36 | 129 | 0.0 | 0.0 | 0.00 | 0.00 | 0.00 | 99 | 1012.8 |
| 20260508114739 | 35 | 130 | 0.0 | 0.0 | 0.00 | 0.00 | 0.00 | 99 | 1012.8 |
| 20260508114236 | 35 | 129 | 0.0 | 0.0 | 0.00 | 0.00 | 0.00 | 99 | 1012.9 |
| 20260508113732 | 34 | 129 | 0.0 | 0.0 | 0.00 | 0.00 | 0.00 | 99 | 1012.8 |
| 20260508113231 | 34 | 129 | 0.0 | 0.0 | 0.00 | 0.00 | 0.00 | 99 | 1012.8 |
| 20260508112721 | 34 | 129 | 0.0 | 0.0 | 0.00 | 0.00 | 0.00 | 99 | 1012.6 |
| 20260508112218 | 34 | 129 | 0.0 | 0.0 | 0.00 | 0.00 | 0.00 | 99 | 1012.8 |
| 20260508111715 | 34 | 129 | 0.0 | 0.0 | 0.00 | 0.00 | 0.00 | 99 | 1012.6 |
| 20260508111213 | 34 | 129 | 0.0 | 0.0 | 0.00 | 0.00 | 0.00 | 99 | 1012.7 |
| 20260508110709 | 33 | 129 | 0.0 | 0.0 | 0.00 | 0.00 | 0.00 | 99 | 1012.6 |
| 20260508110206 | 33 | 129 | 0.0 | 0.0 | 0.00 | 0.00 | 0.00 | 99 | 1012.4 |
| 20260508105700 | 33 | 128 | 0.0 | 0.0 | 0.00 | 0.00 | 0.00 | 99 | 1012.6 |
| 20260508105158 | 33 | 128 | 0.0 | 0.0 | 0.00 | 0.00 | 0.00 | 99 | 1012.4 |
| 20260508104655 | 33 | 128 | 0.0 | 0.0 | 0.00 | 0.00 | 0.00 | 99 | 1012.2 |
| 20260508104152 | 33 | 129 | 0.0 | 0.0 | 0.00 | 0.00 | 0.00 | 99 | 1012.4 |
| 20260508103649 | 33 | 128 | 0.0 | 0.0 | 0.00 | 0.00 | 0.00 | 99 | 1012.4 |
| 20260508103146 | 33 | 129 | 0.0 | 0.0 | 0.00 | 0.00 | 0.00 | 99 | 1012.5 |
| 20260508102643 | 33 | 129 | 0.0 | 0.0 | 0.00 | 0.00 | 0.00 | 99 | 1012.2 |
| 20260508102141 | 34 | 129 | 0.0 | 0.0 | 0.00 | 0.00 | 0.00 | 99 | 1012.2 |
| 20260508101638 | 33 | 128 | 0.0 | 0.0 | 0.00 | 0.00 | 0.00 | 99 | 1012.1 |
| 20260508101136 | 34 | 132 | 0.0 | 0.0 | 0.00 | 0.00 | 0.00 | 99 | 1012.0 |
| 20260508100633 | 34 | 132 | 0.0 | 0.0 | 0.00 | 0.00 | 0.00 | 99 | 1011.8 |
| 20260508100131 | 34 | 132 | 0.0 | 0.0 | 0.00 | 0.00 | 0.00 | 99 | 1012.0 |
| 20260508095627 | 34 | 132 | 0.0 | 0.0 | 0.00 | 0.00 | 0.00 | 99 | 1012.0 |
| 20260508095125 | 34 | 132 | 0.0 | 0.0 | 0.00 | 0.00 | 0.00 | 99 | 1011.8 |
| 20260508094621 | 34 | 132 | 0.0 | 0.0 | 0.00 | 0.00 | 0.00 | 99 | 1011.9 |
| 20260508094118 | 34 | 132 | 0.0 | 0.0 | 0.00 | 0.00 | 0.00 | 99 | 1012.0 |
| 20260508093615 | 34 | 132 | 0.0 | 0.0 | 0.00 | 0.00 | 0.00 | 99 | 1012.0 |
| 20260508093113 | 34 | 131 | 0.0 | 0.0 | 0.00 | 0.00 | 0.00 | 99 | 1011.9 |
| 20260508092610 | 34 | 131 | 0.0 | 0.0 | 0.00 | 0.00 | 0.00 | 99 | 1011.9 |
| 20260508092109 | 34 | 132 | 0.0 | 0.0 | 0.00 | 0.00 | 0.00 | 99 | 1011.9 |
| 20260508091605 | 34 | 131 | 0.0 | 0.0 | 0.00 | 0.00 | 0.00 | 99 | 1011.9 |
| 20260508091102 | 34 | 131 | 0.0 | 0.0 | 0.00 | 0.00 | 0.00 | 99 | 1011.9 |
| 20260508090600 | 34 | 131 | 0.0 | 0.0 | 0.00 | 0.00 | 0.00 | 99 | 1011.6 |
| 20260508090056 | 34 | 132 | 0.0 | 0.0 | 0.00 | 0.00 | 0.00 | 99 | 1011.8 |
| 20260508085553 | 34 | 132 | 0.0 | 0.0 | 0.00 | 0.00 | 0.00 | 99 | 1011.7 |
| 20260508085051 | 34 | 132 | 0.0 | 0.0 | 0.00 | 0.00 | 0.00 | 99 | 1011.9 |
| 20260508084547 | 34 | 131 | 0.0 | 0.0 | 0.00 | 0.00 | 0.00 | 99 | 1011.9 |
| 20260508084044 | 35 | 132 | 0.0 | 0.0 | 0.00 | 0.00 | 0.00 | 99 | 1011.8 |
| 20260508083541 | 35 | 132 | 0.0 | 0.0 | 0.00 | 0.00 | 0.00 | 99 | 1011.7 |
| 20260508083038 | 35 | 132 | 0.0 | 0.0 | 0.00 | 0.00 | 0.00 | 99 | 1011.8 |
| 20260508082534 | 35 | 132 | 0.0 | 0.0 | 0.00 | 0.00 | 0.00 | 99 | 1011.8 |
| 20260508082032 | 35 | 132 | 0.0 | 0.0 | 0.00 | 0.00 | 0.00 | 99 | 1011.7 |
| 20260508081529 | 35 | 131 | 0.0 | 0.0 | 0.00 | 0.00 | 0.00 | 99 | 1011.8 |
| 20260508081025 | 35 | 131 | 0.0 | 0.0 | 0.00 | 0.00 | 0.00 | 99 | 1011.7 |
| 20260508080523 | 35 | 131 | 0.0 | 0.0 | 0.00 | 0.00 | 0.00 | 99 | 1011.7 |
| 20260508080020 | 35 | 131 | 0.0 | 0.0 | 0.00 | 0.00 | 0.00 | 99 | 1011.8 |
| 20260508075516 | 35 | 132 | 0.0 | 0.0 | 0.00 | 0.00 | 0.00 | 99 | 1011.7 |
| 20260508075014 | 35 | 131 | 0.0 | 0.0 | 0.00 | 0.00 | 0.00 | 99 | 1011.7 |
| 20260508074512 | 35 | 132 | 0.0 | 0.0 | 0.00 | 0.00 | 0.00 | 99 | 1011.8 |
| 20260508074008 | 36 | 129 | 0.0 | 0.0 | 0.00 | 0.00 | 0.00 | 99 | 1011.7 |
| 20260508073506 | 35 | 128 | 0.0 | 0.0 | 0.00 | 0.00 | 0.00 | 99 | 1011.7 |
| 20260508073003 | 35 | 128 | 0.0 | 0.0 | 0.00 | 0.00 | 0.00 | 99 | 1011.7 |
| 20260508072459 | 35 | 128 | 0.0 | 0.0 | 0.00 | 0.00 | 0.00 | 99 | 1011.6 |
| 20260508071956 | 36 | 128 | 0.0 | 0.0 | 0.00 | 0.00 | 0.00 | 99 | 1011.7 |
| 20260508071454 | 36 | 128 | 0.0 | 0.0 | 0.00 | 0.00 | 0.00 | 99 | 1011.7 |
| 20260508070951 | 36 | 128 | 0.0 | 0.0 | 0.00 | 0.00 | 0.00 | 99 | 1011.6 |
| 20260508070449 | 36 | 133 | 0.0 | 0.0 | 0.00 | 0.00 | 0.00 | 99 | 1011.5 |
| 20260508065947 | 37 | 136 | 1.7 | 1.7 | 0.00 | 0.00 | 0.00 | 99 | 1011.6 |
| 20260508065445 | 37 | 141 | 0.9 | 1.7 | 0.00 | 0.00 | 0.00 | 99 | 1011.4 |
| 20260508064943 | 37 | 129 | 0.0 | 0.9 | 0.00 | 0.00 | 0.00 | 99 | 1011.5 |
| 20260508064440 | 36 | 131 | 0.0 | 0.0 | 0.00 | 0.00 | 0.00 | 99 | 1011.6 |
| 20260508063937 | 37 | 132 | 0.0 | 0.0 | 0.00 | 0.00 | 0.00 | 99 | 1011.7 |
| 20260508063435 | 37 | 133 | 1.7 | 1.7 | 0.00 | 0.00 | 0.00 | 99 | 1011.6 |
| 20260508062932 | 37 | 131 | 0.0 | 0.0 | 0.00 | 0.00 | 0.00 | 99 | 1011.8 |
| 20260508062430 | 37 | 131 | 0.0 | 0.0 | 0.00 | 0.00 | 0.00 | 99 | 1011.9 |
| 20260508061927 | 37 | 131 | 0.0 | 0.0 | 0.00 | 0.00 | 0.00 | 99 | 1011.7 |
| 20260508061424 | 37 | 131 | 0.9 | 0.9 | 0.00 | 0.00 | 0.00 | 99 | 1011.7 |
| 20260508060920 | 37 | 161 | 1.7 | 1.7 | 0.00 | 0.00 | 0.00 | 99 | 1012.0 |
| 20260508060418 | 37 | 142 | 1.7 | 1.7 | 0.00 | 0.00 | 0.00 | 99 | 1011.6 |
| 20260508055913 | 37 | 135 | 0.0 | 0.0 | 0.00 | 0.00 | 0.00 | 98 | 1011.8 |
| 20260508055410 | 37 | 132 | 0.0 | 0.0 | 0.00 | 0.00 | 0.00 | 98 | 1011.8 |
| 20260508054907 | 37 | 135 | 0.0 | 0.0 | 0.00 | 0.00 | 0.00 | 98 | 1012.0 |
| 20260508054404 | 38 | 133 | 0.0 | 0.0 | 0.00 | 0.00 | 0.00 | 98 | 1011.9 |
| 20260508053901 | 37 | 132 | 0.0 | 0.0 | 0.00 | 0.00 | 0.00 | 98 | 1011.9 |
| 20260508053358 | 38 | 134 | 0.0 | 0.0 | 0.00 | 0.00 | 0.00 | 97 | 1012.0 |
| 20260508052856 | 38 | 133 | 0.0 | 0.0 | 0.00 | 0.00 | 0.00 | 97 | 1011.6 |
| 20260508052353 | 38 | 132 | 0.0 | 0.0 | 0.00 | 0.00 | 0.00 | 97 | 1011.7 |
| 20260508051849 | 38 | 132 | 0.0 | 0.0 | 0.00 | 0.00 | 0.00 | 97 | 1011.7 |
| 20260508051345 | 38 | 131 | 0.0 | 0.0 | 0.00 | 0.00 | 0.00 | 97 | 1011.7 |
| 20260508050841 | 38 | 131 | 0.0 | 0.0 | 0.00 | 0.00 | 0.00 | 97 | 1011.7 |
| 20260508050338 | 38 | 132 | 0.0 | 0.0 | 0.00 | 0.00 | 0.00 | 98 | 1011.7 |
| 20260508045834 | 38 | 133 | 0.0 | 0.9 | 0.00 | 0.00 | 0.00 | 98 | 1011.7 |
| 20260508045332 | 39 | 136 | 0.9 | 0.9 | 0.00 | 0.00 | 0.00 | 98 | 1011.9 |
| 20260508044829 | 39 | 135 | 0.9 | 1.7 | 0.00 | 0.00 | 0.00 | 97 | 1012.0 |
| 20260508044325 | 39 | 133 | 0.9 | 0.9 | 0.00 | 0.00 | 0.00 | 97 | 1011.8 |
| 20260508043822 | 39 | 132 | 0.0 | 0.0 | 0.00 | 0.00 | 0.00 | 97 | 1011.9 |
| 20260508043319 | 39 | 134 | 0.9 | 0.9 | 0.00 | 0.00 | 0.00 | 97 | 1011.9 |
| 20260508042816 | 39 | 136 | 0.9 | 1.7 | 0.00 | 0.00 | 0.00 | 97 | 1011.9 |
| 20260508042314 | 39 | 135 | 0.0 | 0.0 | 0.00 | 0.00 | 0.00 | 96 | 1011.7 |
| 20260508041810 | 40 | 134 | 0.9 | 0.9 | 0.00 | 0.00 | 0.00 | 96 | 1011.8 |
| 20260508041306 | 40 | 138 | 1.7 | 1.7 | 0.00 | 0.00 | 0.00 | 96 | 1011.9 |
| 20260508040803 | 40 | 136 | 0.9 | 1.7 | 0.00 | 0.00 | 0.00 | 96 | 1011.8 |
| 20260508040301 | 40 | 136 | 0.9 | 1.7 | 0.00 | 0.00 | 0.00 | 96 | 1011.6 |
| 20260508035758 | 40 | 144 | 2.6 | 2.6 | 0.00 | 0.00 | 0.00 | 96 | 1011.8 |
| 20260508035255 | 40 | 136 | 1.7 | 1.7 | 0.00 | 0.00 | 0.00 | 95 | 1011.6 |
| 20260508034751 | 40 | 136 | 1.7 | 1.7 | 0.00 | 0.00 | 0.00 | 95 | 1012.0 |
| 20260508034249 | 41 | 135 | 0.9 | 1.7 | 0.00 | 0.00 | 0.00 | 95 | 1011.8 |
| 20260508033746 | 41 | 144 | 1.7 | 1.7 | 0.00 | 0.00 | 0.00 | 94 | 1011.9 |
| 20260508033244 | 41 | 133 | 1.7 | 1.7 | 0.00 | 0.00 | 0.00 | 94 | 1011.9 |
| 20260508032741 | 41 | 138 | 1.7 | 1.7 | 0.00 | 0.00 | 0.00 | 94 | 1011.8 |
| 20260508032238 | 41 | 132 | 0.9 | 1.7 | 0.00 | 0.00 | 0.00 | 93 | 1011.7 |
| 20260508031735 | 41 | 131 | 0.9 | 0.9 | 0.00 | 0.00 | 0.00 | 93 | 1011.8 |
| 20260508031231 | 41 | 131 | 0.9 | 0.9 | 0.00 | 0.00 | 0.00 | 92 | 1011.8 |
| 20260508030728 | 42 | 132 | 0.9 | 0.9 | 0.00 | 0.00 | 0.00 | 92 | 1011.9 |
| 20260508030225 | 42 | 134 | 1.7 | 1.7 | 0.00 | 0.00 | 0.00 | 91 | 1011.8 |
| 20260508025722 | 42 | 131 | 0.9 | 0.9 | 0.00 | 0.00 | 0.00 | 91 | 1011.8 |
| 20260508025219 | 42 | 132 | 0.9 | 0.9 | 0.00 | 0.00 | 0.00 | 90 | 1011.7 |
| 20260508024714 | 42 | 134 | 0.9 | 0.9 | 0.00 | 0.00 | 0.00 | 90 | 1011.7 |
| 20260508024212 | 43 | 132 | 0.9 | 0.9 | 0.00 | 0.00 | 0.00 | 90 | 1011.6 |
| 20260508023708 | 43 | 132 | 0.9 | 0.9 | 0.00 | 0.00 | 0.00 | 89 | 1011.6 |
| 20260508023206 | 43 | 133 | 0.9 | 0.9 | 0.00 | 0.00 | 0.00 | 87 | 1011.6 |
| 20260508022701 | 43 | 132 | 0.9 | 0.9 | 0.00 | 0.00 | 0.00 | 86 | 1011.3 |
| 20260508022159 | 44 | 128 | 0.9 | 0.9 | 0.00 | 0.00 | 0.00 | 86 | 1011.5 |
| 20260508021655 | 44 | 126 | 0.9 | 0.9 | 0.00 | 0.00 | 0.00 | 84 | 1011.3 |
| 20260508021150 | 44 | 126 | 0.0 | 0.0 | 0.00 | 0.00 | 0.00 | 83 | 1011.2 |
| 20260508020648 | 45 | 126 | 0.0 | 0.0 | 0.00 | 0.00 | 0.00 | 82 | 1011.5 |
| 20260508020146 | 45 | 126 | 0.0 | 0.0 | 0.00 | 0.00 | 0.00 | 80 | 1011.1 |
| 20260508015643 | 45 | 126 | 0.0 | 0.0 | 0.00 | 0.00 | 0.00 | 80 | 1011.1 |
| 20260508015140 | 45 | 126 | 0.0 | 0.0 | 0.00 | 0.00 | 0.00 | 81 | 1011.0 |
| 20260508014636 | 46 | 126 | 0.0 | 0.0 | 0.00 | 0.00 | 0.00 | 81 | 1010.9 |
| 20260508014132 | 46 | 128 | 0.0 | 0.0 | 0.00 | 0.00 | 0.00 | 80 | 1010.9 |
| 20260508013629 | 46 | 132 | 0.0 | 0.0 | 0.00 | 0.00 | 0.00 | 80 | 1010.9 |
| 20260508013126 | 47 | 130 | 0.9 | 0.9 | 0.00 | 0.00 | 0.00 | 79 | 1010.8 |
| 20260508012623 | 47 | 137 | 0.0 | 0.9 | 0.00 | 0.00 | 0.00 | 76 | 1010.6 |
| 20260508012120 | 48 | 130 | 0.0 | 0.0 | 0.00 | 0.00 | 0.00 | 75 | 1010.6 |
| 20260508011619 | 48 | 131 | 0.0 | 0.0 | 0.00 | 0.00 | 0.00 | 72 | 1010.4 |
| 20260508011115 | 49 | 130 | 0.0 | 0.0 | 0.00 | 0.00 | 0.00 | 70 | 1010.4 |
| 20260508010612 | 49 | 130 | 0.0 | 0.0 | 0.00 | 0.00 | 0.00 | 69 | 1010.3 |
| 20260508010110 | 50 | 130 | 0.0 | 0.0 | 0.00 | 0.00 | 0.00 | 67 | 1010.2 |
| 20260508005606 | 50 | 130 | 0.0 | 0.0 | 0.00 | 0.00 | 0.00 | 66 | 1010.1 |
| 20260508005103 | 51 | 130 | 0.0 | 0.0 | 0.00 | 0.00 | 0.00 | 64 | 1010.2 |
| 20260508004559 | 51 | 130 | 0.0 | 0.0 | 0.00 | 0.00 | 0.00 | 64 | 1010.2 |
| 20260508004056 | 52 | 130 | 0.0 | 0.0 | 0.00 | 0.00 | 0.00 | 63 | 1010.3 |
| 20260508003552 | 52 | 128 | 0.0 | 0.0 | 0.00 | 0.00 | 0.00 | 60 | 1010.0 |
| 20260508003050 | 53 | 127 | 0.0 | 0.0 | 0.00 | 0.00 | 0.00 | 58 | 1009.9 |
| 20260508002546 | 54 | 128 | 0.9 | 0.9 | 0.00 | 0.00 | 0.00 | 55 | 1009.9 |
| 20260508002044 | 55 | 132 | 0.0 | 0.0 | 0.00 | 0.00 | 0.00 | 54 | 1010.0 |
| 20260508001539 | 57 | 132 | 0.0 | 0.0 | 0.00 | 0.00 | 0.00 | 50 | 1009.8 |
| 20260508001035 | 58 | 127 | 0.0 | 0.0 | 0.00 | 0.00 | 0.00 | 45 | 1009.9 |
| 20260508000531 | 59 | 111 | 0.9 | 0.9 | 0.00 | 0.00 | 0.00 | 39 | 1009.5 |
| 20260508000029 | 59 | 85 | 2.6 | 2.6 | 0.00 | 0.00 | 0.00 | 38 | 1009.4 |
| 20260507235525 | 59 | 154 | 0.9 | 0.9 | 0.00 | 0.00 | 0.00 | 38 | 1009.4 |
| 20260507235023 | 59 | 128 | 0.9 | 0.9 | 0.00 | 0.00 | 0.00 | 37 | 1009.4 |
| 20260507234519 | 60 | 116 | 0.9 | 0.9 | 0.00 | 0.00 | 0.00 | 38 | 1009.3 |
| 20260507234016 | 60 | 144 | 1.7 | 1.7 | 0.00 | 0.00 | 0.00 | 38 | 1009.4 |
| 20260507233512 | 61 | 67 | 2.6 | 4.3 | 0.00 | 0.00 | 0.00 | 37 | 1009.2 |
| 20260507233011 | 61 | 120 | 1.7 | 1.7 | 0.00 | 0.00 | 0.00 | 36 | 1009.3 |
| 20260507232507 | 61 | 133 | 1.7 | 2.6 | 0.00 | 0.00 | 0.00 | 36 | 1009.2 |
| 20260507232005 | 61 | 136 | 1.7 | 2.6 | 0.00 | 0.00 | 0.00 | 35 | 1009.0 |
| 20260507231501 | 61 | 7 | 2.6 | 5.2 | 0.00 | 0.00 | 0.00 | 35 | 1008.9 |
| 20260507230958 | 62 | 52 | 2.6 | 4.3 | 0.00 | 0.00 | 0.00 | 36 | 1009.3 |
| 20260507230455 | 62 | 72 | 2.6 | 2.6 | 0.00 | 0.00 | 0.00 | 36 | 1009.1 |
| 20260507225950 | 62 | 330 | 4.3 | 6.1 | 0.00 | 0.00 | 0.00 | 37 | 1009.3 |
| 20260507225446 | 62 | 146 | 1.7 | 1.7 | 0.00 | 0.00 | 0.00 | 36 | 1009.1 |
| 20260507224943 | 62 | 20 | 2.6 | 2.6 | 0.00 | 0.00 | 0.00 | 34 | 1009.0 |
| 20260507224439 | 62 | 331 | 7.0 | 8.7 | 0.00 | 0.00 | 0.00 | 34 | 1009.0 |
| 20260507223936 | 63 | 150 | 2.6 | 2.6 | 0.00 | 0.00 | 0.00 | 37 | 1009.1 |
| 20260507223432 | 63 | 117 | 2.6 | 4.3 | 0.00 | 0.00 | 0.00 | 39 | 1009.0 |
| 20260507222929 | 64 | 331 | 2.6 | 5.2 | 0.00 | 0.00 | 0.00 | 37 | 1009.2 |
| 20260507222426 | 63 | 155 | 2.6 | 2.6 | 0.00 | 0.00 | 0.00 | 38 | 1008.9 |
| 20260507221922 | 63 | 92 | 0.9 | 1.7 | 0.00 | 0.00 | 0.00 | 38 | 1009.0 |
| 20260507221419 | 64 | 131 | 2.6 | 2.6 | 0.00 | 0.00 | 0.00 | 38 | 1009.0 |
| 20260507220915 | 64 | 355 | 5.2 | 6.1 | 0.00 | 0.00 | 0.00 | 38 | 1008.9 |